Time,TemperatureF,DewpointF,PressureIn,WindDirection,WindDirectionDegrees,WindSpeedMPH,WindSpeedGustMPH,Humidity,HourlyPrecipIn,Conditions,Clouds,dailyrainin,SoftwareType,DateUTC
2013-03-18 00:04:00,24.3,12.0,30.54,South,187,2.0,3.0,59,0.00,,,0.01,weatherlink.com 1.10,2013-03-18 04:04:00,
2013-03-18 00:19:00,24.7,11.0,30.54,West,275,3.0,5.0,57,0.00,,,0.01,weatherlink.com 1.10,2013-03-18 04:19:00,
2013-03-18 00:34:00,24.8,10.0,30.55,West,275,3.0,4.0,54,0.00,,,0.01,weatherlink.com 1.10,2013-03-18 04:34:00,
2013-03-18 00:49:00,24.9,10.0,30.55,WSW,254,4.0,4.0,54,0.00,,,0.01,weatherlink.com 1.10,2013-03-18 04:49:00,
2013-03-18 01:04:00,24.9,10.0,30.55,West,272,1.0,5.0,53,0.00,,,0.01,weatherlink.com 1.10,2013-03-18 05:04:00,
2013-03-18 01:19:00,24.9,10.0,30.55,NNW,340,0.0,4.0,53,0.00,,,0.01,weatherlink.com 1.10,2013-03-18 05:19:00,
2013-03-18 01:34:00,24.5,9.0,30.55,West,279,2.0,5.0,52,0.00,,,0.01,weatherlink.com 1.10,2013-03-18 05:34:00,
2013-03-18 01:49:00,24.2,10.0,30.56,NW,309,2.0,3.0,54,0.00,,,0.01,weatherlink.com 1.10,2013-03-18 05:49:00,
2013-03-18 02:04:00,23.3,10.0,30.57,NW,308,1.0,2.0,56,0.00,,,0.01,weatherlink.com 1.10,2013-03-18 06:04:00,
2013-03-18 02:19:00,23.0,9.0,30.57,WNW,301,4.0,5.0,56,0.00,,,0.01,weatherlink.com 1.10,2013-03-18 06:19:00,
2013-03-18 02:34:00,23.7,8.0,30.57,SW,225,4.0,9.0,52,0.00,,,0.01,weatherlink.com 1.10,2013-03-18 06:34:00,
2013-03-18 02:49:00,23.9,8.0,30.57,West,263,4.0,7.0,50,0.00,,,0.01,weatherlink.com 1.10,2013-03-18 06:49:00,
2013-03-18 03:04:00,23.5,8.0,30.58,SSW,212,1.0,8.0,51,0.00,,,0.01,weatherlink.com 1.10,2013-03-18 07:04:00,
2013-03-18 03:19:00,22.9,8.0,30.59,WNW,287,0.0,4.0,53,0.00,,,0.01,weatherlink.com 1.10,2013-03-18 07:19:00,
2013-03-18 03:34:00,22.6,8.0,30.59,WNW,292,4.0,4.0,54,0.00,,,0.01,weatherlink.com 1.10,2013-03-18 07:34:00,
2013-03-18 03:49:00,22.3,9.0,30.59,West,278,1.0,4.0,57,0.00,,,0.01,weatherlink.com 1.10,2013-03-18 07:49:00,
2013-03-18 04:04:00,21.8,9.0,30.59,WSW,257,2.0,4.0,57,0.00,,,0.01,weatherlink.com 1.10,2013-03-18 08:04:00,
2013-03-18 04:19:00,21.3,8.0,30.60,WSW,254,0.0,3.0,58,0.00,,,0.01,weatherlink.com 1.10,2013-03-18 08:19:00,
2013-03-18 04:34:00,21.2,9.0,30.61,NW,315,0.0,5.0,60,0.00,,,0.01,weatherlink.com 1.10,2013-03-18 08:34:00,
2013-03-18 04:50:00,20.6,9.0,30.61,NW,315,0.0,2.0,60,0.00,,,0.01,weatherlink.com 1.10,2013-03-18 08:50:00,
2013-03-18 05:05:00,20.2,9.0,30.62,NW,315,0.0,1.0,62,0.00,,,0.01,weatherlink.com 1.10,2013-03-18 09:05:00,
2013-03-18 05:20:00,19.8,9.0,30.62,NW,315,0.0,0.0,63,0.00,,,0.01,weatherlink.com 1.10,2013-03-18 09:20:00,
2013-03-18 05:35:00,19.3,10.0,30.62,NW,315,1.0,2.0,66,0.00,,,0.01,weatherlink.com 1.10,2013-03-18 09:35:00,
2013-03-18 05:50:00,19.3,9.0,30.63,NW,315,0.0,2.0,64,0.00,,,0.01,weatherlink.com 1.10,2013-03-18 09:50:00,
2013-03-18 06:05:00,19.5,9.0,30.63,NW,315,0.0,2.0,64,0.00,,,0.01,weatherlink.com 1.10,2013-03-18 10:05:00,
2013-03-18 06:20:00,19.0,9.0,30.63,NW,315,0.0,2.0,65,0.00,,,0.01,weatherlink.com 1.10,2013-03-18 10:20:00,
2013-03-18 06:35:00,18.9,7.0,30.64,NW,315,0.0,2.0,61,0.00,,,0.01,weatherlink.com 1.10,2013-03-18 10:35:00,
2013-03-18 06:50:00,19.4,7.0,30.64,NW,315,1.0,2.0,59,0.00,,,0.01,weatherlink.com 1.10,2013-03-18 10:50:00,
2013-03-18 07:05:00,19.3,10.0,30.64,NW,315,0.0,1.0,66,0.00,,,0.01,weatherlink.com 1.10,2013-03-18 11:05:00,
2013-03-18 07:20:00,19.1,9.0,30.64,NW,315,1.0,2.0,66,0.00,,,0.01,weatherlink.com 1.10,2013-03-18 11:20:00,
2013-03-18 07:35:00,19.2,9.0,30.65,NW,315,0.0,2.0,65,0.00,,,0.01,weatherlink.com 1.10,2013-03-18 11:35:00,
2013-03-18 07:50:00,19.5,8.0,30.65,NW,315,0.0,1.0,62,0.00,,,0.01,weatherlink.com 1.10,2013-03-18 11:50:00,
2013-03-18 08:05:00,20.1,8.0,30.65,NW,315,0.0,1.0,59,0.00,,,0.01,weatherlink.com 1.10,2013-03-18 12:05:00,
2013-03-18 08:20:00,21.1,9.0,30.64,NW,315,1.0,3.0,59,0.00,,,0.01,weatherlink.com 1.10,2013-03-18 12:20:00,
2013-03-18 08:35:00,21.8,9.0,30.64,NW,313,0.0,2.0,59,0.00,,,0.01,weatherlink.com 1.10,2013-03-18 12:35:00,
2013-03-18 08:50:00,22.6,8.0,30.64,NW,309,0.0,2.0,54,0.00,,,0.01,weatherlink.com 1.10,2013-03-18 12:50:00,
2013-03-18 09:05:00,23.4,8.0,30.64,NW,313,2.0,3.0,51,0.00,,,0.01,weatherlink.com 1.10,2013-03-18 13:05:00,
2013-03-18 09:20:00,24.0,8.0,30.64,NW,310,1.0,3.0,51,0.00,,,0.01,weatherlink.com 1.10,2013-03-18 13:20:00,
2013-03-18 09:35:00,25.0,7.0,30.64,NNW,340,0.0,3.0,46,0.00,,,0.01,weatherlink.com 1.10,2013-03-18 13:35:00,
2013-03-18 09:50:00,25.6,7.0,30.63,NW,319,0.0,3.0,46,0.00,,,0.01,weatherlink.com 1.10,2013-03-18 13:50:00,
2013-03-18 10:05:00,27.0,8.0,30.63,NW,318,2.0,3.0,44,0.00,,,0.01,weatherlink.com 1.10,2013-03-18 14:05:00,
2013-03-18 10:20:00,28.5,9.0,30.63,West,262,1.0,4.0,44,0.00,,,0.01,weatherlink.com 1.10,2013-03-18 14:20:00,
2013-03-18 10:35:00,28.6,7.0,30.62,East,96,3.0,4.0,40,0.00,,,0.01,weatherlink.com 1.10,2013-03-18 14:35:00,
2013-03-18 10:50:00,29.6,8.0,30.62,West,267,0.0,4.0,40,0.00,,,0.01,weatherlink.com 1.10,2013-03-18 14:50:00,
2013-03-18 11:05:00,30.6,8.0,30.61,South,186,1.0,6.0,39,0.00,,,0.00,weatherlink.com 1.10,2013-03-18 15:05:00,
2013-03-18 11:20:00,31.5,8.0,30.61,East,99,0.0,9.0,38,0.00,,,0.00,weatherlink.com 1.10,2013-03-18 15:20:00,
2013-03-18 11:35:00,32.0,8.0,30.61,South,169,4.0,9.0,37,0.00,,,0.00,weatherlink.com 1.10,2013-03-18 15:35:00,
2013-03-18 11:50:00,32.5,9.0,30.61,NE,38,0.0,6.0,38,0.00,,,0.00,weatherlink.com 1.10,2013-03-18 15:50:00,
2013-03-18 12:05:00,32.7,9.0,30.61,SSE,156,3.0,7.0,37,0.00,,,0.00,weatherlink.com 1.10,2013-03-18 16:05:00,
2013-03-18 12:20:00,32.7,10.0,30.60,ESE,121,0.0,8.0,38,0.00,,,0.00,weatherlink.com 1.10,2013-03-18 16:20:00,
2013-03-18 12:35:00,32.6,10.0,30.59,East,98,0.0,8.0,39,0.00,,,0.00,weatherlink.com 1.10,2013-03-18 16:35:00,
2013-03-18 12:50:00,33.3,11.0,30.59,ENE,60,3.0,8.0,39,0.00,,,0.00,weatherlink.com 1.10,2013-03-18 16:50:00,
2013-03-18 13:05:00,34.2,11.0,30.59,South,178,5.0,7.0,39,0.00,,,0.00,weatherlink.com 1.10,2013-03-18 17:05:00,
2013-03-18 13:20:00,33.9,11.0,30.57,NW,323,2.0,8.0,39,0.00,,,0.00,weatherlink.com 1.10,2013-03-18 17:20:00,
2013-03-18 13:35:00,33.7,13.0,30.56,NNE,30,1.0,8.0,42,0.00,,,0.00,weatherlink.com 1.10,2013-03-18 17:35:00,
2013-03-18 13:50:00,34.3,13.0,30.54,NNE,28,2.0,9.0,41,0.00,,,0.00,weatherlink.com 1.10,2013-03-18 17:50:00,
2013-03-18 14:06:00,34.1,14.0,30.53,ENE,59,2.0,8.0,43,0.00,,,0.00,weatherlink.com 1.10,2013-03-18 18:06:00,
2013-03-18 14:21:00,34.3,14.0,30.53,North,350,2.0,5.0,43,0.00,,,0.00,weatherlink.com 1.10,2013-03-18 18:21:00,
2013-03-18 14:36:00,33.9,14.0,30.52,West,261,4.0,6.0,45,0.00,,,0.00,weatherlink.com 1.10,2013-03-18 18:36:00,
2013-03-18 14:51:00,33.9,15.0,30.51,West,279,1.0,6.0,47,0.00,,,0.00,weatherlink.com 1.10,2013-03-18 18:51:00,
2013-03-18 16:51:00,32.7,15.0,30.47,WNW,290,0.0,5.0,49,0.00,,,0.00,weatherlink.com 1.10,2013-03-18 20:51:00,
2013-03-18 17:06:00,32.6,16.0,30.46,NW,314,1.0,6.0,50,0.00,,,0.00,weatherlink.com 1.10,2013-03-18 21:06:00,
2013-03-18 17:21:00,32.4,16.0,30.45,ENE,58,1.0,4.0,50,0.00,,,0.00,weatherlink.com 1.10,2013-03-18 21:21:00,
2013-03-18 17:36:00,32.0,15.0,30.45,NW,319,1.0,5.0,50,0.00,,,0.00,weatherlink.com 1.10,2013-03-18 21:36:00,
2013-03-18 18:06:00,30.3,20.0,30.44,West,273,1.0,7.0,65,0.00,,,0.00,weatherlink.com 1.10,2013-03-18 22:06:00,
2013-03-18 18:51:00,26.4,24.0,30.42,WNW,294,1.0,5.0,89,0.00,,,0.00,weatherlink.com 1.10,2013-03-18 22:51:00,
2013-03-18 19:06:00,26.1,24.0,30.42,NW,318,2.0,5.0,90,0.00,,,0.00,weatherlink.com 1.10,2013-03-18 23:06:00,
2013-03-18 19:21:00,25.9,24.0,30.42,WNW,294,2.0,5.0,91,0.00,,,0.00,weatherlink.com 1.10,2013-03-18 23:21:00,
2013-03-18 19:36:00,25.8,24.0,30.42,NE,39,0.0,4.0,92,0.00,,,0.00,weatherlink.com 1.10,2013-03-18 23:36:00,
2013-03-18 20:06:00,26.0,24.0,30.40,NNW,338,2.0,4.0,93,0.00,,,0.00,weatherlink.com 1.10,2013-03-19 00:06:00,
2013-03-18 20:21:00,26.1,24.0,30.40,NW,319,0.0,1.0,93,0.00,,,0.00,weatherlink.com 1.10,2013-03-19 00:21:00,
2013-03-18 20:36:00,26.3,25.0,30.39,WNW,295,2.0,4.0,93,0.00,,,0.00,weatherlink.com 1.10,2013-03-19 00:36:00,
2013-03-18 20:52:00,26.6,25.0,30.38,North,355,0.0,3.0,93,0.00,,,0.00,weatherlink.com 1.10,2013-03-19 00:52:00,
2013-03-18 21:07:00,26.7,25.0,30.38,NW,325,2.0,5.0,94,0.00,,,0.00,weatherlink.com 1.10,2013-03-19 01:07:00,
2013-03-18 21:22:00,27.0,26.0,30.38,WNW,292,4.0,8.0,94,0.00,,,0.00,weatherlink.com 1.10,2013-03-19 01:22:00,
2013-03-18 21:37:00,27.2,26.0,30.37,South,187,1.0,3.0,94,0.00,,,0.00,weatherlink.com 1.10,2013-03-19 01:37:00,
2013-03-18 21:52:00,27.2,26.0,30.37,NW,325,0.0,4.0,94,0.00,,,0.00,weatherlink.com 1.10,2013-03-19 01:52:00,
2013-03-18 22:07:00,27.3,26.0,30.35,NNW,329,0.0,3.0,94,0.00,,,0.00,weatherlink.com 1.10,2013-03-19 02:07:00,
2013-03-18 22:22:00,27.4,26.0,30.34,WNW,297,0.0,3.0,95,0.00,,,0.00,weatherlink.com 1.10,2013-03-19 02:22:00,
2013-03-18 22:37:00,27.5,26.0,30.34,West,267,0.0,2.0,95,0.00,,,0.00,weatherlink.com 1.10,2013-03-19 02:37:00,
2013-03-18 22:52:00,27.6,26.0,30.33,NNE,32,0.0,3.0,95,0.00,,,0.00,weatherlink.com 1.10,2013-03-19 02:52:00,
2013-03-18 23:07:00,27.6,26.0,30.32,ENE,60,0.0,2.0,95,0.00,,,0.00,weatherlink.com 1.10,2013-03-19 03:07:00,
2013-03-18 23:22:00,27.7,27.0,30.31,WNW,302,0.0,2.0,95,0.00,,,0.00,weatherlink.com 1.10,2013-03-19 03:22:00,
2013-03-18 23:37:00,27.8,27.0,30.31,West,273,2.0,6.0,95,0.00,,,0.00,weatherlink.com 1.10,2013-03-19 03:37:00,
2013-03-18 23:52:00,27.9,27.0,30.30,SSW,206,1.0,3.0,95,0.00,,,0.00,weatherlink.com 1.10,2013-03-19 03:52:00,